• In Germany
  • List of Countries
  • For 7 days
  • Water Temperature
  • Satellite Maps
  • Weather Map
  • Weather Widgets
  • user-avatar
    Login

    Hourly Weather Sukhumi

    Today, 15 December, Friday

    Time Temperature Precipitation Wind Pressure Humidity
    00:00 +12°C° 0 mm 3 mps 754 mmHg 47%
    01:00 +12°C° 0 mm 3 mps 754 mmHg 48%
    02:00 +11°C° 0 mm 3 mps 754 mmHg 49%
    03:00 +11°C° 0 mm 3 mps 754 mmHg 47%
    04:00 +11°C° 0 mm 3 mps 754 mmHg 48%
    05:00 +11°C° 0 mm 3 mps 755 mmHg 49%
    06:00 +11°C° 0 mm 3 mps 755 mmHg 51%
    07:00 +11°C° 0 mm 3 mps 755 mmHg 51%
    08:00 +11°C° 0 mm 3 mps 755 mmHg 52%
    09:00 +12°C° 0 mm 3 mps 755 mmHg 52%
    10:00 +13°C° 0 mm 3 mps 755 mmHg 51%
    11:00 +14°C° 0 mm 3 mps 755 mmHg 51%
    12:00 +17°C° 0 mm 3 mps 755 mmHg 50%
    13:00 +16°C° 0 mm 2 mps 755 mmHg 52%
    14:00 +16°C° 0 mm 2 mps 755 mmHg 54%
    15:00 +16°C° 0 mm 2 mps 756 mmHg 56%
    16:00 +14°C° 0 mm 2 mps 756 mmHg 56%
    17:00 +13°C° 0 mm 2 mps 757 mmHg 55%
    18:00 +10°C° 0 mm 2 mps 757 mmHg 55%
    19:00 +10°C° 0 mm 2 mps 758 mmHg 55%
    20:00 +10°C° 0 mm 2 mps 758 mmHg 54%
    21:00 +10°C° 0 mm 2 mps 758 mmHg 54%
    22:00 +9°C° 0 mm 2 mps 758 mmHg 55%
    23:00 +9°C° 0 mm 3 mps 758 mmHg 56%

    Tomorrow, 16 December, Saturday

    Time Temperature Precipitation Wind Pressure Humidity
    00:00 +9°C° 0 mm 3 mps 759 mmHg 57%
    01:00 +9°C° 0 mm 3 mps 759 mmHg 58%
    02:00 +9°C° 0 mm 3 mps 759 mmHg 59%
    03:00 +9°C° 0 mm 3 mps 759 mmHg 59%
    04:00 +9°C° 0 mm 3 mps 759 mmHg 59%
    05:00 +9°C° 0 mm 3 mps 758 mmHg 58%
    06:00 +9°C° 0 mm 3 mps 758 mmHg 57%
    07:00 +10°C° 0 mm 4 mps 758 mmHg 56%
    08:00 +11°C° 0 mm 4 mps 758 mmHg 54%
    09:00 +11°C° 0 mm 4 mps 758 mmHg 53%
    10:00 +13°C° 0 mm 3 mps 757 mmHg 53%
    11:00 +16°C° 0 mm 3 mps 756 mmHg 53%
    12:00 +18°C° 0 mm 3 mps 756 mmHg 54%
    13:00 +17°C° 0 mm 3 mps 755 mmHg 54%
    14:00 +17°C° 0 mm 2 mps 755 mmHg 55%
    15:00 +17°C° 0 mm 2 mps 755 mmHg 56%
    16:00 +16°C° 0 mm 3 mps 755 mmHg 53%
    17:00 +14°C° 0 mm 3 mps 755 mmHg 50%
    18:00 +13°C° 0 mm 3 mps 755 mmHg 47%
    19:00 +12°C° 0 mm 4 mps 755 mmHg 44%
    20:00 +12°C° 0 mm 4 mps 755 mmHg 42%
    21:00 +12°C° 0 mm 4 mps 755 mmHg 39%
    22:00 +12°C° 0 mm 4 mps 755 mmHg 39%
    23:00 +12°C° 0 mm 4 mps 755 mmHg 38%

    Day after tomorrow, 17 December, Sunday

    Time Temperature Precipitation Wind Pressure Humidity
    00:00 +12°C° 0 mm 4 mps 755 mmHg 38%
    01:00 +12°C° 0 mm 4 mps 755 mmHg 38%
    02:00 +12°C° 0 mm 4 mps 755 mmHg 38%
    03:00 +12°C° 0 mm 4 mps 755 mmHg 38%
    04:00 +11°C° 0 mm 4 mps 755 mmHg 39%
    05:00 +11°C° 0 mm 4 mps 755 mmHg 40%
    06:00 +11°C° 0 mm 4 mps 755 mmHg 42%
    07:00 +12°C° 0 mm 4 mps 755 mmHg 43%
    08:00 +12°C° 0 mm 4 mps 755 mmHg 44%
    09:00 +13°C° 0 mm 4 mps 755 mmHg 45%
    10:00 +14°C° 0 mm 4 mps 754 mmHg 47%
    11:00 +16°C° 0 mm 3 mps 754 mmHg 49%
    12:00 +18°C° 0 mm 3 mps 753 mmHg 51%
    13:00 +18°C° 0 mm 2 mps 753 mmHg 51%
    14:00 +17°C° 0 mm 2 mps 753 mmHg 51%
    15:00 +17°C° 0 mm 2 mps 753 mmHg 51%
    16:00 +16°C° 0 mm 2 mps 754 mmHg 51%
    17:00 +15°C° 0 mm 2 mps 754 mmHg 51%
    18:00 +14°C° 0 mm 2 mps 754 mmHg 50%
    19:00 +13°C° 0 mm 3 mps 754 mmHg 51%
    20:00 +13°C° 0 mm 3 mps 755 mmHg 52%
    21:00 +13°C° 0 mm 3 mps 755 mmHg 53%
    22:00 +13°C° 0 mm 4 mps 755 mmHg 52%
    23:00 +12°C° 0 mm 4 mps 755 mmHg 51%

    18 December, Monday

    Time Temperature Precipitation Wind Pressure Humidity
    00:00 +12°C° 0 mm 4 mps 754 mmHg 51%
    01:00 +12°C° 0.1 mm 4 mps 754 mmHg 52%
    02:00 +12°C° 0.1 mm 4 mps 754 mmHg 53%
    03:00 +12°C° 0.1 mm 4 mps 754 mmHg 54%
    04:00 +12°C° 0.1 mm 4 mps 754 mmHg 56%
    05:00 +12°C° 0.1 mm 4 mps 754 mmHg 58%
    06:00 +12°C° 0.1 mm 4 mps 754 mmHg 61%
    07:00 +12°C° 0.3 mm 4 mps 754 mmHg 65%
    08:00 +12°C° 0.3 mm 4 mps 755 mmHg 69%
    09:00 +12°C° 0.3 mm 4 mps 755 mmHg 73%
    10:00 +13°C° 0.2 mm 4 mps 755 mmHg 73%
    11:00 +13°C° 0.2 mm 4 mps 755 mmHg 74%
    12:00 +14°C° 0.2 mm 4 mps 755 mmHg 74%
    13:00 +14°C° 0.3 mm 4 mps 755 mmHg 77%
    14:00 +13°C° 0.3 mm 4 mps 755 mmHg 79%
    15:00 +13°C° 0.3 mm 4 mps 755 mmHg 81%
    16:00 +12°C° 0.3 mm 4 mps 755 mmHg 81%
    17:00 +12°C° 0.3 mm 3 mps 755 mmHg 81%
    18:00 +12°C° 0.3 mm 3 mps 755 mmHg 80%
    19:00 +12°C° 0.5 mm 3 mps 755 mmHg 80%
    20:00 +12°C° 0.5 mm 3 mps 755 mmHg 80%
    21:00 +12°C° 0.5 mm 3 mps 755 mmHg 79%
    22:00 +12°C° 0.9 mm 3 mps 754 mmHg 81%
    23:00 +12°C° 0.9 mm 3 mps 754 mmHg 82%

    19 December, Tuesday

    Time Temperature Precipitation Wind Pressure Humidity
    00:00 +12°C° 0.9 mm 3 mps 754 mmHg 84%
    01:00 +12°C° 1.6 mm 3 mps 754 mmHg 85%
    02:00 +11°C° 1.6 mm 3 mps 754 mmHg 87%
    03:00 +11°C° 1.6 mm 4 mps 754 mmHg 88%
    04:00 +11°C° 1.9 mm 3 mps 754 mmHg 88%
    05:00 +11°C° 1.9 mm 3 mps 754 mmHg 89%
    06:00 +11°C° 1.9 mm 3 mps 754 mmHg 90%
    07:00 +11°C° 1.7 mm 3 mps 755 mmHg 90%
    08:00 +11°C° 1.7 mm 3 mps 756 mmHg 91%
    09:00 +10°C° 1.7 mm 3 mps 757 mmHg 92%
    10:00 +10°C° 1.3 mm 3 mps 757 mmHg 92%
    11:00 +10°C° 1.3 mm 3 mps 758 mmHg 93%
    12:00 +10°C° 1.3 mm 4 mps 758 mmHg 94%
    13:00 +10°C° 0.7 mm 4 mps 759 mmHg 94%
    14:00 +10°C° 0.7 mm 4 mps 760 mmHg 93%
    15:00 +10°C° 0.7 mm 4 mps 760 mmHg 93%
    16:00 +8°C° 0.3 mm 4 mps 761 mmHg 92%
    17:00 +7°C° 0.3 mm 4 mps 761 mmHg 92%
    18:00 +7°C° 0.3 mm 4 mps 762 mmHg 91%
    19:00 +7°C° 0.1 mm 3 mps 763 mmHg 89%
    20:00 +7°C° 0.1 mm 3 mps 763 mmHg 87%
    21:00 +5°C° 0.1 mm 3 mps 764 mmHg 84%
    22:00 +5°C° 0.1 mm 3 mps 764 mmHg 83%
    23:00 +4°C° 0.1 mm 3 mps 764 mmHg 82%

    20 December, Wednesday

    Time Temperature Precipitation Wind Pressure Humidity
    00:00 +4°C° 0.1 mm 3 mps 764 mmHg 80%
    01:00 +4°C° 0.1 mm 3 mps 764 mmHg 79%
    02:00 +4°C° 0.1 mm 3 mps 764 mmHg 78%
    03:00 +4°C° 0.1 mm 3 mps 764 mmHg 77%
    04:00 +4°C° 0.1 mm 3 mps 764 mmHg 77%
    05:00 +4°C° 0.1 mm 3 mps 764 mmHg 77%
    06:00 +5°C° 0.1 mm 2 mps 764 mmHg 77%
    07:00 +5°C° 0.1 mm 2 mps 764 mmHg 77%
    08:00 +6°C° 0.1 mm 2 mps 764 mmHg 77%
    09:00 +6°C° 0.1 mm 2 mps 764 mmHg 77%
    10:00 +7°C° 0.1 mm 2 mps 764 mmHg 75%
    11:00 +7°C° 0.1 mm 2 mps 763 mmHg 74%
    12:00 +8°C° 0.1 mm 2 mps 763 mmHg 73%
    13:00 +8°C° 0.1 mm 2 mps 762 mmHg 74%
    14:00 +8°C° 0.1 mm 2 mps 762 mmHg 75%
    15:00 +8°C° 0.1 mm 2 mps 762 mmHg 76%
    16:00 +7°C° 0.2 mm 2 mps 762 mmHg 78%
    17:00 +7°C° 0.2 mm 2 mps 762 mmHg 80%
    18:00 +5°C° 0.2 mm 3 mps 762 mmHg 82%
    19:00 +5°C° 0.4 mm 3 mps 762 mmHg 83%
    20:00 +5°C° 0.4 mm 3 mps 762 mmHg 84%
    21:00 +5°C° 0.4 mm 3 mps 762 mmHg 86%
    22:00 +6°C° 0.4 mm 2 mps 762 mmHg 86%
    23:00 +6°C° 0.4 mm 2 mps 762 mmHg 86%
    Show more